WB9TLH-12 Weather Reports


time (UTC)temp
C
wind
direction
speed
KPH
gust
KPH
rain 1hr
cm
rain 24hr
cm
rain mn
cm
humidity
%
barometer
mb
20260905172737 32 0 0.0 0.0 0.00 0.00 0.00 55 1010.5
20260905172236 32 221 0.0 0.0 0.00 0.00 0.00 56 1010.5
20260905171736 31 176 0.0 0.0 0.00 0.00 0.00 55 1010.6
20260905171236 31 177 0.0 0.0 0.00 0.00 0.00 56 1010.7
20260905170735 31 201 0.0 0.0 0.00 0.00 0.00 56 1010.8
20260905170235 31 202 0.0 0.0 0.00 0.00 0.00 55 1010.9
20260905165735 31 0 0.0 0.0 0.00 0.00 0.00 55 1011.0
20260905165234 31 205 0.0 0.0 0.00 0.00 0.00 55 1011.1
20260905164734 31 78 0.0 0.0 0.00 0.00 0.00 55 1011.2
20260905164234 31 130 0.0 0.0 0.00 0.00 0.00 55 1011.3
20260905163734 31 136 0.0 0.0 0.00 0.00 0.00 55 1011.2
20260905163233 31 188 0.0 0.0 0.00 0.00 0.00 56 1011.2
20260905162733 31 150 0.0 0.0 0.00 0.00 0.00 55 1011.3
20260905162233 30 155 0.0 0.0 0.00 0.00 0.00 56 1011.1
20260905161732 30 168 0.0 0.0 0.00 0.00 0.00 56 1011.2
20260905161232 30 144 0.0 0.0 0.00 0.00 0.00 57 1011.2
20260905160732 30 142 0.0 0.0 0.00 0.00 0.00 57 1011.1
20260905160232 30 170 0.0 0.0 0.00 0.00 0.00 56 1011.1
20260905155731 30 138 0.0 0.0 0.00 0.00 0.00 57 1011.2
20260905155231 30 0 0.0 0.0 0.00 0.00 0.00 57 1011.4
20260905154731 30 122 0.0 0.0 0.00 0.00 0.00 58 1011.6
20260905154230 29 173 0.0 0.0 0.00 0.00 0.00 58 1011.7
20260905153730 28 161 0.0 0.0 0.00 0.00 0.00 59 1011.7
20260905153230 28 103 0.0 0.0 0.00 0.00 0.00 59 1011.7
20260905152730 28 0 0.0 0.0 0.00 0.00 0.00 60 1011.5
20260905152229 28 139 0.0 0.0 0.00 0.00 0.00 60 1011.5
20260905151729 28 113 0.0 0.0 0.00 0.00 0.00 61 1011.4
20260905151229 28 133 0.0 0.0 0.00 0.00 0.00 61 1011.5
20260905150728 28 0 0.0 0.0 0.00 0.00 0.00 61 1011.5
20260905150228 28 67 0.0 0.0 0.00 0.00 0.00 61 1011.5
20260905145728 27 143 0.0 0.0 0.00 0.00 0.00 64 1011.4
20260905145227 27 0 0.0 0.0 0.00 0.00 0.00 64 1011.5
20260905144727 27 101 0.0 0.0 0.00 0.00 0.00 64 1011.6
20260905144227 27 125 0.0 0.0 0.00 0.00 0.00 65 1011.7
20260905143727 27 106 0.0 0.0 0.00 0.00 0.00 65 1011.7
20260905143226 27 86 0.0 0.0 0.00 0.00 0.00 66 1011.8
20260905142726 26 102 0.0 0.0 0.00 0.00 0.00 66 1011.9
20260905142226 26 95 0.0 0.0 0.00 0.00 0.00 66 1012.0
20260905141725 26 94 0.0 0.0 0.00 0.00 0.00 67 1012.0
20260905141225 26 97 0.0 0.0 0.00 0.00 0.00 66 1011.9
20260905140725 26 110 0.0 0.0 0.00 0.00 0.00 67 1011.8
20260905140225 26 119 0.0 0.0 0.00 0.00 0.00 67 1011.9
20260905135724 26 124 0.0 0.0 0.00 0.00 0.00 68 1011.8
20260905135224 26 102 0.0 0.0 0.00 0.00 0.00 70 1011.8
20260905134724 25 127 0.0 0.0 0.00 0.00 0.00 71 1011.8
20260905134223 25 88 0.0 0.0 0.00 0.00 0.00 71 1012.0
20260905133723 25 92 0.0 0.0 0.00 0.00 0.00 72 1012.1
20260905133223 25 92 0.0 0.0 0.00 0.00 0.00 75 1011.9
20260905132723 25 55 0.0 0.0 0.00 0.00 0.00 76 1012.1
20260905132222 25 72 0.0 0.0 0.00 0.00 0.00 76 1012.1
20260905131722 25 109 0.0 0.0 0.00 0.00 0.00 77 1012.1
20260905131222 24 68 0.0 0.0 0.00 0.00 0.00 79 1012.0
20260905130721 24 90 0.0 0.0 0.00 0.00 0.00 80 1012.0
20260905130221 24 92 0.0 0.0 0.00 0.00 0.00 80 1011.9
20260905125721 24 70 0.0 0.0 0.00 0.00 0.00 81 1011.9
20260905125220 24 100 0.0 0.0 0.00 0.00 0.00 82 1011.9
20260905124720 24 62 0.0 0.0 0.00 0.00 0.00 82 1011.8
20260905124220 24 82 0.0 0.0 0.00 0.00 0.00 82 1011.8
20260905123720 24 17 0.0 0.0 0.00 0.00 0.00 84 1011.6
20260905123219 24 85 0.0 0.0 0.00 0.00 0.00 84 1011.7
20260905122719 25 65 0.0 0.0 0.00 0.00 0.00 83 1011.7
20260905122219 25 100 0.0 0.0 0.00 0.00 0.00 82 1011.7
20260905121718 26 68 0.0 0.0 0.00 0.00 0.00 80 1011.6
20260905121218 26 28 0.0 0.0 0.00 0.00 0.00 76 1010.9
20260905120718 26 28 0.0 0.0 0.00 0.00 0.00 76 1011.0
20260905120218 26 295 0.0 0.0 0.00 0.00 0.00 73 1010.8
20260905115717 26 282 0.0 0.0 0.00 0.00 0.00 74 1010.6
20260905115217 26 283 0.0 0.0 0.00 0.00 0.00 73 1010.5
20260905114717 26 248 0.0 0.0 0.00 0.00 0.00 74 1010.4
20260905114216 26 245 0.0 0.0 0.00 0.00 0.00 74 1010.5
20260905113716 26 254 0.0 0.0 0.00 0.00 0.00 74 1010.4
20260905113216 26 252 0.0 0.0 0.00 0.00 0.00 75 1010.4
20260905112715 26 287 0.0 0.0 0.00 0.00 0.00 75 1010.3
20260905112215 26 263 0.0 0.0 0.00 0.00 0.00 75 1010.3
20260905111715 26 262 0.0 0.0 0.00 0.00 0.00 75 1010.2
20260905111215 26 283 0.0 0.0 0.00 0.00 0.00 76 1010.2
20260905110714 26 283 0.0 0.0 0.00 0.00 0.00 76 1010.2
20260905110214 26 254 0.0 0.0 0.00 0.00 0.00 76 1010.1
20260905105714 26 248 0.0 0.0 0.00 0.00 0.00 77 1010.0
20260905105213 26 0 0.0 0.0 0.00 0.00 0.00 77 1010.0
20260905104713 26 257 0.0 0.0 0.00 0.00 0.00 77 1010.0
20260905104213 26 247 0.0 0.0 0.00 0.00 0.00 77 1010.1
20260905103713 26 254 0.0 0.0 0.00 0.00 0.00 78 1010.1
20260905103212 26 259 0.0 0.0 0.00 0.00 0.00 78 1010.2
20260905102712 26 259 0.0 0.0 0.00 0.00 0.00 78 1010.3
20260905102212 26 254 0.0 0.0 0.00 0.00 0.00 78 1010.3
20260905101711 26 254 0.0 0.0 0.00 0.00 0.00 78 1010.4
20260905101211 26 257 0.0 0.0 0.00 0.00 0.00 78 1010.3
20260905100711 26 255 0.0 0.0 0.00 0.00 0.00 78 1010.3
20260905100211 26 254 0.0 0.0 0.00 0.00 0.00 78 1010.2
20260905095710 26 257 0.0 0.0 0.00 0.00 0.00 78 1010.2
20260905095210 27 257 0.0 0.0 0.00 0.00 0.00 78 1010.1
20260905094710 27 257 0.0 0.0 0.00 0.00 0.00 78 1010.1
20260905094209 27 258 0.0 0.0 0.00 0.00 0.00 77 1010.1
20260905093709 27 263 0.0 0.0 0.00 0.00 0.00 77 1010.1
20260905093209 27 249 0.0 0.0 0.00 0.00 0.00 77 1010.0
20260905092708 27 265 0.0 0.0 0.00 0.00 0.00 78 1010.0
20260905092208 27 244 0.0 0.0 0.00 0.00 0.00 78 1010.0
20260905091708 27 254 0.0 0.0 0.00 0.00 0.00 78 1010.0
20260905091208 27 0 0.0 0.0 0.00 0.00 0.00 78 1010.0
20260905090707 26 254 0.0 0.0 0.00 0.00 0.00 79 1009.9
20260905090207 26 246 0.0 0.0 0.00 0.00 0.00 79 1009.9
20260905085707 26 254 0.0 0.0 0.00 0.00 0.00 80 1009.8
20260905085206 26 265 0.0 0.0 0.00 0.00 0.00 80 1009.8
20260905084706 26 241 0.0 0.0 0.00 0.00 0.00 80 1009.8
20260905084206 26 242 0.0 0.0 0.00 0.00 0.00 81 1009.8
20260905083706 26 240 0.0 0.0 0.00 0.00 0.00 80 1009.7
20260905083205 26 257 0.0 0.0 0.00 0.00 0.00 80 1009.6
20260905082705 27 225 0.0 0.0 0.00 0.00 0.00 80 1009.6
20260905082205 27 223 0.0 0.0 0.00 0.00 0.00 80 1009.6
20260905081704 27 223 0.0 0.0 0.00 0.00 0.00 80 1009.6
20260905081204 27 196 0.0 0.0 0.00 0.00 0.00 80 1009.5
20260905080704 27 190 0.0 0.0 0.00 0.00 0.00 79 1009.4
20260905080204 27 218 0.0 0.0 0.00 0.00 0.00 79 1009.4
20260905075703 27 244 0.0 0.0 0.00 0.00 0.00 79 1009.4
20260905075203 27 237 0.0 0.0 0.00 0.00 0.00 78 1009.3
20260905074703 27 223 0.0 0.0 0.00 0.00 0.00 78 1009.3
20260905074202 27 207 0.0 0.0 0.00 0.00 0.00 78 1009.4
20260905073702 27 221 0.0 0.0 0.00 0.00 0.00 78 1009.4
20260905073202 27 223 0.0 0.0 0.00 0.00 0.00 78 1009.4
20260905072701 27 214 0.0 0.0 0.00 0.00 0.00 78 1009.4
20260905072201 27 209 0.0 0.0 0.00 0.00 0.00 78 1009.4
20260905071701 27 197 0.0 0.0 0.00 0.00 0.00 78 1009.7
20260905071201 27 193 0.0 0.0 0.00 0.00 0.00 78 1009.7
20260905070700 27 189 0.0 0.0 0.00 0.00 0.00 78 1009.7
20260905070200 27 188 0.0 0.0 0.00 0.00 0.00 78 1009.8
20260905065700 27 188 0.0 0.0 0.00 0.00 0.00 78 1009.9
20260905065159 27 188 0.0 0.0 0.00 0.00 0.00 78 1010.1
20260905064659 27 188 0.0 0.0 0.00 0.00 0.00 78 1010.1
20260905064159 27 188 0.0 0.0 0.00 0.00 0.00 78 1010.1
20260905063659 27 187 0.0 0.0 0.00 0.00 0.00 78 1010.2
20260905063158 28 188 0.0 0.0 0.00 0.00 0.00 78 1010.2
20260905062658 28 184 0.0 0.0 0.00 0.00 0.00 78 1010.3
20260905062158 28 183 0.0 0.0 0.00 0.00 0.00 78 1010.3
20260905061657 28 182 0.0 0.0 0.00 0.00 0.00 78 1010.3
20260905061157 28 180 0.0 0.0 0.00 0.00 0.00 78 1010.3
20260905060657 28 178 0.0 0.0 0.00 0.00 0.00 78 1010.3
20260905060156 28 175 0.0 0.0 0.00 0.00 0.00 79 1010.3
20260905055656 28 169 0.0 0.0 0.00 0.00 0.00 79 1010.3
20260905055156 28 164 0.0 0.0 0.00 0.00 0.00 78 1010.4
20260905054656 28 163 0.0 0.0 0.00 0.00 0.00 78 1010.4
20260905054155 28 161 0.0 0.0 0.00 0.00 0.00 78 1010.5
20260905053655 28 161 0.0 0.0 0.00 0.00 0.00 78 1010.5
20260905053155 28 160 0.0 0.0 0.00 0.00 0.00 78 1010.5
20260905052654 28 160 0.0 0.0 0.00 0.00 0.00 78 1010.5
20260905052154 28 160 0.0 0.0 0.00 0.00 0.00 78 1010.6
20260905051654 28 160 0.0 0.0 0.00 0.00 0.00 77 1010.6
20260905051154 28 160 0.0 0.0 0.00 0.00 0.00 77 1010.6
20260905050653 28 160 0.0 0.0 0.00 0.00 0.00 77 1010.7
20260905050153 28 160 0.0 0.0 0.00 0.00 0.00 77 1010.7
20260905045653 28 160 0.0 0.0 0.00 0.00 0.00 76 1010.7
20260905045152 28 160 0.0 0.0 0.00 0.00 0.00 75 1010.8
20260905044652 29 159 0.0 0.0 0.00 0.00 0.00 75 1010.8
20260905044152 29 160 0.0 0.0 0.00 0.00 0.00 75 1010.8
20260905043652 29 160 0.0 0.0 0.00 0.00 0.00 75 1010.9
20260905043151 29 160 0.0 0.0 0.00 0.00 0.00 74 1010.9
20260905042651 30 160 0.0 0.0 0.00 0.00 0.00 74 1010.9
20260905042151 30 160 0.0 0.0 0.00 0.00 0.00 72 1010.9
20260905041650 30 160 0.0 0.0 0.00 0.00 0.00 72 1010.9
20260905041150 30 159 0.0 0.0 0.00 0.00 0.00 71 1010.9
20260905040650 30 159 0.0 0.0 0.00 0.00 0.00 71 1010.9
20260905040149 30 160 0.0 0.0 0.00 0.00 0.00 71 1010.9
20260905035649 30 160 0.0 0.0 0.00 0.00 0.00 71 1010.8
20260905035149 30 159 0.0 0.0 0.00 0.00 0.00 71 1010.8
20260905034649 30 159 0.0 0.0 0.00 0.00 0.00 69 1010.8
20260905034148 30 160 0.0 0.0 0.00 0.00 0.00 70 1010.9
20260905033648 30 160 0.0 0.0 0.00 0.00 0.00 69 1010.9
20260905033148 30 160 0.0 0.0 0.00 0.00 0.00 70 1010.9
20260905032647 30 159 0.0 0.0 0.00 0.00 0.00 70 1010.9
20260905032147 30 159 0.0 0.0 0.00 0.00 0.00 70 1010.9
20260905031647 30 160 0.0 0.0 0.00 0.00 0.00 70 1010.9
20260905031147 30 160 0.0 0.0 0.00 0.00 0.00 70 1010.9
20260905030646 30 160 0.0 0.0 0.00 0.00 0.00 70 1010.9
20260905030146 30 160 0.0 0.0 0.00 0.00 0.00 71 1010.8
20260905025646 30 160 0.0 0.0 0.00 0.00 0.00 71 1010.8
20260905025145 30 159 0.0 0.0 0.00 0.00 0.00 71 1010.9
20260905024645 30 160 0.0 0.0 0.00 0.00 0.00 71 1010.8
20260905024145 30 160 0.0 0.0 0.00 0.00 0.00 71 1010.8
20260905023644 30 159 0.0 0.0 0.00 0.00 0.00 69 1010.9
20260905023144 30 159 0.0 0.0 0.00 0.00 0.00 70 1010.9
20260905022644 30 159 0.0 0.0 0.00 0.00 0.00 69 1010.9
20260905022144 30 160 0.0 0.0 0.00 0.00 0.00 69 1010.9
20260905021643 30 160 0.0 0.0 0.00 0.00 0.00 69 1010.8
20260905021143 30 159 0.0 0.0 0.00 0.00 0.00 69 1010.8
20260905020643 30 159 0.0 0.0 0.00 0.00 0.00 68 1010.8
20260905020142 31 160 0.0 0.0 0.00 0.00 0.00 66 1010.8
20260905015642 31 160 0.0 0.0 0.00 0.00 0.00 64 1010.8
20260905015142 31 160 0.0 0.0 0.00 0.00 0.00 64 1010.7
20260905014642 31 160 0.0 0.0 0.00 0.00 0.00 64 1010.7
20260905014141 32 159 0.0 0.0 0.00 0.00 0.00 64 1010.5
20260905013641 32 159 0.0 0.0 0.00 0.00 0.00 64 1010.5
20260905013141 32 159 0.0 0.0 0.00 0.00 0.00 64 1010.5
20260905012640 31 159 0.0 0.0 0.00 0.00 0.00 64 1010.4
20260905012140 31 159 0.0 0.0 0.00 0.00 0.00 63 1010.4
20260905011640 31 159 0.0 0.0 0.00 0.00 0.00 63 1010.4
20260905011139 31 159 0.0 0.0 0.00 0.00 0.00 65 1010.3
20260905010639 31 159 0.0 0.0 0.00 0.00 0.00 64 1010.4
20260905010139 31 159 0.0 0.0 0.00 0.00 0.00 63 1010.3
20260905005639 31 159 0.0 0.0 0.00 0.00 0.00 63 1010.3
20260905005138 31 159 0.0 0.0 0.00 0.00 0.00 64 1010.2
20260905004638 31 159 0.0 0.0 0.00 0.00 0.00 63 1010.3
20260905004138 31 159 0.0 0.0 0.00 0.00 0.00 64 1010.2
20260905003637 32 159 0.0 0.0 0.00 0.00 0.00 64 1010.2
20260905003137 32 159 0.0 0.0 0.00 0.00 0.00 64 1010.1
20260905002637 32 160 0.0 0.0 0.00 0.00 0.00 62 1010.2
20260905002137 33 165 0.0 0.0 0.00 0.00 0.00 62 1010.1
20260905001636 33 191 0.0 0.0 0.00 0.00 0.00 60 1010.1
20260905001136 33 191 0.0 0.0 0.00 0.00 0.00 59 1010.1
20260905000636 33 191 0.0 0.0 0.00 0.00 0.00 56 1010.0
20260905000135 33 191 0.0 0.0 0.00 0.00 0.00 56 1010.0
20260904235635 34 191 0.0 0.0 0.00 0.00 0.00 55 1009.9
20260904235135 34 191 0.0 0.0 0.00 0.00 0.00 52 1009.9
20260904234635 34 191 0.0 0.0 0.00 0.00 0.00 51 1009.9
20260904234134 34 191 0.0 0.0 0.00 0.00 0.00 51 1010.0
20260904233634 34 191 0.0 0.0 0.00 0.00 0.00 50 1010.0
20260904233134 34 190 0.0 0.0 0.00 0.00 0.00 50 1010.0
20260904232633 34 188 0.0 0.0 0.00 0.00 0.00 50 1009.9
20260904232133 35 187 0.0 0.0 0.00 0.00 0.00 49 1009.9
20260904231633 35 169 0.0 0.0 0.00 0.00 0.00 49 1009.8
20260904231133 35 202 0.0 0.0 0.00 0.00 0.00 48 1009.9
20260904230632 35 187 0.0 0.0 0.00 0.00 0.00 48 1009.9
20260904230132 35 169 0.0 0.0 0.00 0.00 0.00 47 1009.9
20260904225632 35 165 0.0 0.0 0.00 0.00 0.00 48 1009.9
20260904225131 35 174 0.0 0.0 0.00 0.00 0.00 48 1010.0
20260904224631 35 229 0.0 0.0 0.00 0.00 0.00 47 1010.0
20260904224131 36 276 0.0 0.0 0.00 0.00 0.00 47 1010.1
20260904223630 36 225 0.0 0.0 0.00 0.00 0.00 47 1010.0
20260904223130 36 205 0.0 0.0 0.00 0.00 0.00 47 1010.0
20260904222630 36 144 0.0 0.0 0.00 0.00 0.00 46 1010.1
20260904222130 36 180 0.0 0.0 0.00 0.00 0.00 47 1010.1
20260904221629 35 221 0.0 0.0 0.00 0.00 0.00 45 1010.0
20260904221129 36 223 0.0 0.0 0.00 0.00 0.00 46 1010.0
20260904220629 36 165 0.0 0.0 0.00 0.00 0.00 46 1010.0
20260904220128 36 209 0.0 0.0 0.00 0.00 0.00 45 1010.0
20260904215628 36 224 0.0 0.0 0.00 0.00 0.00 46 1010.1
20260904215128 35 208 0.0 0.0 0.00 0.00 0.00 47 1010.1
20260904214628 35 252 0.0 0.0 0.00 0.00 0.00 47 1010.1
20260904214127 35 272 0.0 0.0 0.00 0.00 0.00 46 1010.2
20260904213627 35 313 0.0 0.0 0.00 0.00 0.00 46 1010.2
20260904213127 35 301 0.0 0.0 0.00 0.00 0.00 46 1010.3
20260904212626 35 325 0.0 0.0 0.00 0.00 0.00 46 1010.3
20260904212126 35 240 0.0 0.0 0.00 0.00 0.00 46 1010.3
20260904211626 35 222 0.0 0.0 0.00 0.00 0.00 46 1010.4
20260904211125 35 330 0.0 0.0 0.00 0.00 0.00 47 1010.4
20260904210625 35 309 0.0 0.0 0.00 0.00 0.00 47 1010.5
20260904210125 35 267 0.0 0.0 0.00 0.00 0.00 46 1010.5
20260904205625 35 271 0.0 0.0 0.00 0.00 0.00 46 1010.6
20260904205124 35 212 0.0 0.0 0.00 0.00 0.00 47 1010.6
20260904204624 35 225 0.0 0.0 0.00 0.00 0.00 48 1010.7
20260904204124 35 294 0.0 0.0 0.00 0.00 0.00 47 1010.8
20260904203623 35 258 0.0 0.0 0.00 0.00 0.00 49 1010.8
20260904203123 35 293 0.0 0.0 0.00 0.00 0.00 50 1010.8
20260904202623 35 286 0.0 0.0 0.00 0.00 0.00 50 1010.9
20260904202123 35 307 0.0 0.0 0.00 0.00 0.00 50 1010.9
20260904201622 35 355 0.0 0.0 0.00 0.00 0.00 49 1011.0
20260904201122 35 252 0.0 0.0 0.00 0.00 0.00 51 1011.0
20260904200622 35 284 0.0 0.0 0.00 0.00 0.00 48 1011.1
20260904200121 35 286 0.0 0.0 0.00 0.00 0.00 48 1011.2
20260904195621 35 275 0.0 0.0 0.00 0.00 0.00 46 1011.2
20260904195121 35 279 0.0 0.0 0.00 0.00 0.00 48 1011.3
20260904194621 35 203 0.0 0.0 0.00 0.00 0.00 48 1011.4
20260904194120 35 327 0.0 0.0 0.00 0.00 0.00 48 1011.5
20260904193620 35 227 0.0 0.0 0.00 0.00 0.00 49 1011.7
20260904193120 35 215 0.0 0.0 0.00 0.00 0.00 49 1011.7
20260904192619 35 294 0.0 0.0 0.00 0.00 0.00 49 1011.9
20260904192119 35 292 0.0 0.0 0.00 0.00 0.00 49 1011.9
20260904191619 35 0 0.0 0.0 0.00 0.00 0.00 51 1011.9
20260904191118 35 0 0.0 0.0 0.00 0.00 0.00 52 1012.0
20260904190618 35 310 0.0 0.0 0.00 0.00 0.00 51 1012.1
20260904190118 35 225 0.0 0.0 0.00 0.00 0.00 50 1012.2
20260904185618 35 233 0.0 0.0 0.00 0.00 0.00 52 1012.3
20260904185117 35 275 0.0 0.0 0.00 0.00 0.00 52 1012.3
20260904184617 34 0 0.0 0.0 0.00 0.00 0.00 52 1012.4
20260904184117 35 195 0.0 0.0 0.00 0.00 0.00 52 1012.4
20260904183616 35 0 0.0 0.0 0.00 0.00 0.00 52 1012.4
20260904183116 35 267 0.0 0.0 0.00 0.00 0.00 52 1012.4
20260904182616 35 312 0.0 0.0 0.00 0.00 0.00 53 1012.4
20260904182116 35 277 0.0 0.0 0.00 0.00 0.00 53 1012.5
20260904181615 34 246 0.0 0.0 0.00 0.00 0.00 53 1012.5
20260904181115 34 320 0.0 0.0 0.00 0.00 0.00 52 1012.6
20260904180615 34 252 0.0 0.0 0.00 0.00 0.00 51 1012.7
20260904180114 34 215 0.0 0.0 0.00 0.00 0.00 53 1012.9
20260904175614 34 309 0.0 0.0 0.00 0.00 0.00 53 1013.0
20260904175114 34 285 0.0 0.0 0.00 0.00 0.00 53 1012.9
20260904174613 34 273 0.0 0.0 0.00 0.00 0.00 54 1013.1
20260904174113 34 0 0.0 0.0 0.00 0.00 0.00 53 1013.1
20260904173613 34 232 0.0 0.0 0.00 0.00 0.00 54 1013.1